Simultaneous Nadir Overpasses (SNOs) Predictions

Prediction of SNOs between AQUA and METOP-A Satellite Orbit:

Table of predicted SNOs for the next 14.0 days since TLE Epoch: 6/15/2018
Index Date (AQUA) Time (AQUA) Lat,Lon (AQUA) SZA (AQUA ) Date (METOP-A) Time (METOP-A) Lat,Lon (METOP-A) SZA (METOP-A ) Distance(km) Time Diff (sec)
1 06/18/2018 07:35:28 74.25, 59.58 50.89 06/18/2018 07:34:16 74.21, 58.96 50.89 19.28 72
2 06/18/2018 08:24:57 -74.41,-133.17 128.94 06/18/2018 08:24:53 -74.43,-133.17 128.92 1.63 4
3 06/18/2018 09:14:26 74.50, 34.26 51.16 06/18/2018 09:15:32 74.48, 34.30 51.13 2.66 66
4 06/21/2018 03:09:44 74.35, 125.77 50.98 06/21/2018 03:08:31 74.32, 125.63 50.96 5.63 73
5 06/21/2018 03:59:11 -74.41, -66.72 128.97 06/21/2018 03:59:10 -74.44, -66.73 128.94 3.48 1
6 06/21/2018 04:48:40 74.50, 100.69 51.14 06/21/2018 04:49:49 74.49, 100.73 51.11 2.21 69
7 06/23/2018 22:43:58 74.36,-167.81 51.01 06/23/2018 22:42:47 74.37,-167.82 51.04 1.35 71
8 06/23/2018 23:33:26 -74.46, -0.40 128.88 06/23/2018 23:33:27 -74.45, -0.30 128.90 3.21 1
9 06/24/2018 00:22:54 74.51, 167.11 51.18 06/24/2018 00:24:06 74.49, 167.15 51.15 2.58 72
10 06/26/2018 18:18:12 74.38,-101.40 51.11 06/26/2018 18:17:04 74.38,-101.40 51.13 0.13 68
11 06/26/2018 19:07:39 -74.47, 66.02 128.79 06/26/2018 19:07:43 -74.45, 66.12 128.81 3.15 4
12 06/26/2018 19:57:08 74.58,-126.61 51.34 06/26/2018 19:58:20 74.59,-126.18 51.32 13.03 72
13 06/29/2018 13:52:25 74.40, -35.01 51.27 06/29/2018 13:51:20 74.38, -34.99 51.26 1.96 65
14 06/29/2018 14:41:52 -74.43, 132.56 128.70 06/29/2018 14:42:00 -74.46, 132.54 128.67 3.59 8




NCC Satellite Simultaneous Nadir Overpasses (SNOs) Prediction Service
